Vorticity
nan nan nan nan nan nan nan nan nan nan nan nan nan nan nan nan nan nan nan nan nan nan nan nan nan nan nan nan nan nan nan nan nan nan nan nan nan nan nan nan nan nan nan nan nan nan nan nan nan nan nan nan nan nan nan nan nan nan nan nan nan nan nan nan nan nan nan nan nan
nan 10 11 10 8 8 9 10 10 10 10 11 11 10 9 9 9 8 8 8 8 8 8 8 8 9 8 8 9 9 8 8 8 8 8 8 9 8 8 8 8 8 7 8 9 9 9 9 9 9 10 9 9 10 11 10 8 6 6 8 10 9 8 8 9 10 10 10 nan
nan 9 9 10 10 10 9 8 9 10 10 10 10 10 10 9 9 9 8 7 8 9 9 8 8 8 8 8 9 9 9 8 8 8 8 8 9 9 8 8 8 8 8 9 9 9 9 9 8 8 9 9 8 9 10 10 8 7 7 9 10 9 8 8 10 10 10 9 nan
nan 9 10 11 12 10 9 9 11 10 8 8 9 10 9 9 9 9 8 8 8 9 9 9 9 8 8 9 9 9 9 9 9 8 8 8 8 9 8 8 7 8 9 9 9 9 10 9 8 8 9 9 8 9 9 9 8 8 9 10 9 8 8 8 9 9 9 9 nan
nan 10 11 11 10 9 9 11 11 8 7 7 9 9 9 9 9 9 9 8 8 8 9 10 9 9 9 9 9 9 9 9 9 9 8 8 9 9 9 8 8 9 9 9 9 9 9 9 9 9 9 9 9 9 9 9 8 9 9 9 9 8 8 9 9 9 9 10 nan
nan 10 12 12 11 9 10 12 10 8 7 8 11 11 10 9 10 10 10 8 7 8 9 9 9 9 9 8 9 9 9 9 9 8 7 8 9 9 8 8 8 9 9 9 9 9 9 9 9 9 9 9 9 9 9 9 8 8 8 8 9 9 9 9 9 8 8 8 nan
nan 10 10 11 10 10 10 10 8 7 8 10 12 11 9 9 10 10 9 8 7 8 8 8 8 9 8 8 8 8 9 9 9 8 7 7 8 8 8 8 8 9 9 9 9 9 9 9 8 7 8 9 10 9 9 8 7 7 7 8 10 9 9 9 9 8 8 9 nan
nan 10 9 10 10 10 9 8 8 8 9 12 11 9 8 9 9 9 7 7 8 8 8 8 9 9 9 9 8 8 8 8 9 9 8 7 7 8 8 8 8 8 9 9 9 9 10 9 8 8 8 9 9 8 7 7 8 8 8 9 9 9 8 9 9 9 9 10 nan
nan 9 10 10 9 9 9 9 9 10 11 12 10 9 8 9 8 6 6 7 8 8 8 9 9 9 9 9 8 8 7 7 8 8 8 7 7 8 8 7 7 8 10 9 8 9 10 9 8 8 9 8 7 6 6 8 8 9 9 10 9 8 7 8 8 9 9 11 nan
nan 7 7 7 9 9 9 9 10 11 11 10 8 9 10 9 6 6 7 7 8 8 9 9 9 9 9 8 8 8 8 7 7 7 8 7 7 8 9 7 7 8 9 10 9 9 9 8 7 8 9 8 7 7 8 9 8 8 9 9 8 7 8 8 9 9 10 11 nan
nan 7 7 8 9 9 8 8 8 8 9 8 8 8 9 7 6 7 8 9 9 9 8 9 9 9 8 8 8 8 9 8 7 7 7 7 8 8 8 8 7 7 9 10 10 9 8 7 6 7 8 9 9 9 10 9 8 8 9 8 7 8 8 8 9 10 11 12 nan
nan 8 9 10 10 9 8 8 7 7 8 8 7 7 7 7 7 8 8 10 9 8 8 8 9 9 8 8 8 8 9 8 7 7 7 8 8 9 8 8 8 8 9 10 11 9 8 7 6 6 8 9 10 9 8 8 8 9 9 8 7 7 7 7 9 11 12 12 nan
nan 8 9 10 10 9 8 7 8 8 9 8 7 7 7 7 8 8 8 9 8 8 8 9 9 9 8 8 9 9 9 8 7 7 7 8 9 8 8 8 8 8 9 11 10 9 7 7 6 7 7 9 9 7 7 8 9 9 9 8 7 6 6 7 10 11 11 11 nan
nan 9 9 8 8 8 7 7 8 9 9 7 6 6 7 7 8 9 10 9 8 8 8 9 9 9 9 9 9 9 9 8 8 7 8 9 9 8 8 8 8 9 9 10 9 8 8 7 7 8 8 8 8 7 8 9 9 9 8 8 7 7 8 9 10 10 10 10 nan
nan 8 7 7 8 8 8 8 8 8 8 6 6 6 7 8 8 9 10 10 8 8 9 9 9 9 10 10 9 9 9 8 8 7 7 8 9 8 8 8 8 9 9 9 9 9 8 8 8 8 8 8 8 9 9 9 9 9 9 8 8 9 9 9 10 10 10 10 nan
nan 7 7 8 10 9 9 8 8 8 8 6 6 7 8 8 8 9 10 9 9 9 9 9 9 10 10 10 9 9 8 8 7 7 7 8 8 8 7 8 8 9 8 9 9 9 8 8 8 9 9 9 9 9 9 9 10 10 9 9 9 9 9 9 10 11 11 10 nan
nan 7 8 10 11 10 9 8 9 9 8 7 7 8 8 8 9 9 9 9 9 9 9 8 9 9 10 10 9 9 9 8 7 7 7 7 7 7 7 8 8 9 9 8 8 8 8 8 9 9 10 10 10 10 10 10 10 10 10 10 10 10 10 10 11 12 12 11 nan
nan 8 10 11 10 9 8 8 9 8 8 7 8 8 9 9 9 9 9 9 9 9 9 9 9 9 8 9 10 9 8 8 8 8 8 8 8 7 8 8 9 9 9 8 8 8 8 8 9 10 10 11 11 11 11 11 11 11 11 11 11 11 10 11 12 12 12 11 nan
nan 9 10 10 9 7 7 7 7 7 7 8 8 9 9 9 10 9 9 9 9 9 8 9 9 9 8 9 10 9 9 8 8 8 8 8 8 8 8 8 9 9 9 9 8 8 9 9 9 9 10 10 10 11 11 11 11 11 11 12 11 11 11 12 12 12 12 10 nan
nan 8 8 7 6 6 6 6 7 7 8 9 9 9 9 9 9 9 9 9 9 9 8 8 8 9 9 9 9 10 9 9 8 8 9 9 8 8 8 9 9 9 9 9 9 9 9 9 10 10 11 10 10 11 11 12 12 11 12 12 12 11 11 12 12 12 11 10 nan
nan 7 7 7 7 7 7 7 8 9 9 9 9 9 8 9 9 9 9 9 9 9 8 7 8 8 8 8 9 10 10 10 9 8 9 8 8 9 10 10 10 10 9 9 9 9 10 10 11 11 12 12 12 12 11 11 11 11 12 11 11 12 12 12 12 12 11 10 nan
nan 7 7 8 9 9 10 10 10 10 9 8 8 8 8 9 9 9 9 10 9 9 8 8 8 8 8 8 8 9 10 10 9 8 8 8 9 9 10 10 9 9 9 9 10 10 11 12 13 13 13 13 12 11 11 10 10 11 11 11 11 12 13 13 13 12 11 11 nan
nan 8 8 9 10 11 10 10 9 9 8 7 8 9 9 10 10 10 10 10 9 9 9 9 9 9 9 8 8 8 8 9 8 8 8 9 9 9 10 10 9 9 10 11 10 10 11 13 14 14 14 12 11 11 11 11 11 11 11 11 11 12 13 13 12 12 12 11 nan
nan 9 9 10 11 10 9 9 9 8 7 8 8 9 9 9 10 10 10 10 9 9 10 10 9 10 10 9 8 7 7 7 7 8 8 9 9 9 10 10 10 11 11 8 2 2 7 12 13 13 13 11 11 11 11 12 11 11 10 10 11 11 12 12 12 11 11 11 nan
nan 10 10 11 12 10 10 9 9 8 8 8 8 9 9 9 10 10 9 9 9 9 9 10 10 11 10 10 9 7 7 6 7 8 7 8 9 10 10 11 11 11 9 -2 -9 -3 5 11 14 14 13 12 11 11 12 12 11 11 10 10 10 10 10 10 11 12 12 13 nan
nan 10 11 12 12 11 10 9 8 8 8 8 9 9 9 9 10 10 9 8 9 9 10 10 10 10 10 10 8 8 8 8 8 8 7 7 8 10 10 10 11 9 3 -8 -7 1 6 9 12 16 19 15 11 11 12 11 10 10 10 10 10 9 8 9 11 12 13 14 nan
nan 10 11 12 11 10 9 9 9 9 9 9 9 9 9 10 10 9 9 9 10 10 10 9 9 9 10 9 7 8 9 9 9 8 8 8 8 9 10 10 10 6 -4 -9 -3 5 8 8 10 14 21 20 14 12 12 11 10 10 10 11 10 10 9 9 11 11 13 13 nan
nan 11 11 10 8 8 8 9 10 10 10 10 10 10 10 10 10 10 9 9 10 10 10 9 10 10 9 7 7 8 9 9 9 9 9 8 9 9 10 10 7 0 -8 -7 2 7 9 9 9 11 16 22 22 15 12 10 10 10 10 10 10 10 11 12 13 13 12 12 nan
nan 11 10 8 8 8 9 10 10 9 9 9 9 10 10 10 9 9 9 9 9 9 10 10 10 9 7 7 8 9 9 9 10 9 8 8 8 9 9 9 6 -0 -6 -3 5 8 9 9 9 9 11 21 27 18 13 10 9 10 10 10 9 9 10 12 12 12 12 12 nan
nan 10 10 9 9 9 9 10 9 9 9 9 9 9 10 9 8 9 9 9 9 9 10 10 8 7 7 8 9 9 9 9 9 8 7 7 7 8 8 10 8 2 -4 -1 5 7 9 9 9 9 9 18 27 23 15 9 9 9 9 8 8 9 10 12 12 12 11 10 nan
nan 10 10 9 9 9 9 9 9 9 10 10 9 9 9 8 8 9 9 9 8 9 9 9 7 7 9 10 9 8 8 9 9 8 7 6 7 10 11 11 9 3 -4 -2 5 8 9 9 9 9 8 18 28 25 16 9 9 9 8 7 7 9 11 12 12 11 10 8 nan
nan 10 10 9 8 8 9 9 9 9 9 9 9 9 9 9 9 9 9 9 8 8 9 8 7 8 9 10 9 8 8 8 8 7 7 8 11 11 10 11 10 3 -5 -3 5 8 9 9 9 8 8 19 29 24 16 10 9 9 8 8 9 9 10 10 10 9 8 7 nan
nan 10 9 8 8 8 8 9 9 9 8 7 7 8 8 9 10 10 10 10 9 8 8 7 7 8 9 9 9 8 8 8 8 8 9 11 11 10 10 12 9 0 -6 -2 6 8 9 9 9 8 8 21 30 23 15 10 9 9 9 9 8 9 9 9 8 7 7 7 nan
nan 9 9 8 7 7 8 9 10 9 8 7 8 8 9 9 9 10 11 11 11 10 9 8 8 9 10 9 8 8 7 7 9 9 9 10 11 10 11 11 5 -5 -7 0 7 8 9 9 8 9 11 25 31 21 13 10 9 8 7 7 8 8 8 8 7 7 7 8 nan
nan 8 8 8 8 8 9 9 10 9 9 8 8 9 9 9 9 9 9 10 11 10 10 9 9 9 10 9 8 7 6 7 9 9 10 10 10 10 11 10 2 -6 -6 2 7 8 9 9 8 10 17 29 28 18 11 10 8 7 7 8 8 8 8 8 8 9 9 9 nan
nan 8 8 8 8 9 9 9 9 8 8 7 8 9 10 10 10 9 8 9 9 9 10 10 9 8 8 9 8 7 7 8 9 9 9 10 10 10 10 10 4 -3 -3 2 6 7 8 8 8 12 22 30 24 14 11 10 9 8 9 9 9 9 9 10 10 10 10 10 nan
nan 9 8 8 8 8 9 8 8 7 8 8 8 8 9 10 11 10 9 9 8 8 9 10 8 7 7 9 9 8 7 8 8 8 9 10 10 10 10 10 7 2 -1 0 4 6 8 8 9 15 25 27 18 12 11 10 9 9 9 10 11 11 11 12 12 13 12 10 nan
nan 9 9 8 8 8 8 8 7 7 8 9 9 9 9 10 10 10 9 9 8 8 9 9 7 7 7 8 8 9 10 9 9 9 9 10 10 9 9 10 9 5 -0 -2 2 5 7 8 10 15 24 24 16 13 11 10 9 8 9 11 12 12 12 12 12 13 14 9 nan
nan 10 9 8 7 7 7 8 7 7 8 9 10 10 10 10 10 10 10 10 9 8 8 8 7 7 6 8 10 10 10 10 10 10 10 9 7 6 8 11 9 5 -1 -2 1 4 7 8 9 13 23 25 18 14 11 10 9 9 9 10 11 12 13 11 11 13 14 8 nan
nan 10 9 8 7 7 7 8 8 8 8 8 9 10 10 11 10 10 10 10 9 8 7 7 7 7 7 9 11 11 10 10 10 10 9 7 4 5 11 14 10 6 2 1 2 4 5 7 9 13 24 25 17 13 11 10 9 9 9 9 9 10 12 12 14 14 14 10 nan
nan nan nan nan nan nan nan nan nan nan nan nan nan nan nan nan nan nan nan nan nan nan nan nan nan nan nan nan nan nan nan nan nan nan nan nan nan nan nan nan nan nan nan nan nan nan nan nan nan nan nan nan nan nan nan nan nan nan nan nan nan nan nan nan nan nan nan nan nan
CAPE
nan nan nan nan nan nan nan nan nan nan nan nan nan nan nan nan nan nan nan nan nan nan nan nan nan nan nan nan nan nan nan nan nan nan nan nan nan nan nan nan nan nan nan nan nan nan nan nan nan nan nan nan nan nan nan nan nan nan nan nan nan nan nan nan nan nan nan nan nan
nan nan nan nan nan nan nan nan nan nan nan nan nan nan nan nan nan nan nan nan nan nan nan nan nan nan nan nan nan nan nan nan nan nan nan nan nan nan nan nan nan nan nan nan nan nan nan nan nan nan nan nan nan nan nan nan nan nan nan nan nan nan nan nan nan nan nan nan nan
nan nan nan nan nan nan nan nan nan nan nan nan nan nan nan nan nan nan nan nan nan nan nan nan nan nan nan nan nan nan nan nan nan nan nan nan nan nan nan nan nan nan nan nan nan nan nan nan nan nan nan nan nan nan nan nan nan nan nan nan nan nan nan nan nan nan nan nan nan
nan nan nan nan nan nan nan nan nan nan nan nan nan nan nan nan nan nan nan nan nan nan nan nan nan nan nan nan nan nan nan nan nan nan nan nan nan nan nan nan nan nan nan nan nan nan nan nan nan nan nan nan nan nan nan nan nan nan nan nan nan nan nan nan nan nan nan nan nan
nan nan nan nan nan nan nan nan nan nan nan nan nan nan nan nan nan nan nan nan nan nan nan nan nan nan nan nan nan nan nan nan nan nan nan nan nan nan nan nan nan nan nan nan nan nan nan nan nan nan nan nan nan nan nan nan nan nan nan nan nan nan nan nan nan nan nan nan nan
nan nan nan nan nan nan nan nan nan nan nan nan nan nan nan nan nan nan nan nan nan nan nan nan nan nan nan nan nan nan nan nan nan nan nan nan nan nan nan nan nan nan nan nan nan nan nan nan nan nan nan nan nan nan nan nan nan nan nan nan nan nan nan nan nan nan nan nan nan
nan nan nan nan nan nan nan nan nan nan nan nan nan nan nan nan nan nan nan nan nan nan nan nan nan nan nan nan nan nan nan nan nan nan nan nan nan nan nan nan nan nan nan nan nan nan nan nan nan nan nan nan nan nan nan nan nan nan nan nan nan nan nan nan nan nan nan nan nan
nan nan nan nan nan nan nan nan nan nan nan nan nan nan nan nan nan nan nan nan nan nan nan nan nan nan nan nan nan nan nan nan nan nan nan nan nan nan nan nan nan nan nan nan nan nan nan nan nan nan nan nan nan nan nan nan nan nan nan nan nan nan nan nan nan nan nan nan nan
nan nan nan nan nan nan nan nan nan nan nan nan nan nan nan nan nan nan nan nan nan nan nan nan nan nan nan nan nan nan nan nan nan nan nan nan nan nan nan nan nan nan nan nan nan nan nan nan nan nan nan nan nan nan nan nan nan nan nan nan nan nan nan nan nan nan nan nan nan
nan nan nan nan nan nan nan nan nan nan nan nan nan nan nan nan nan nan nan nan nan nan nan nan nan nan nan nan nan nan nan nan nan nan nan nan nan nan nan nan nan nan nan nan nan nan nan nan nan nan nan nan nan nan nan nan nan nan nan nan nan nan nan nan nan nan nan nan nan
nan nan nan nan nan nan nan nan nan nan nan nan nan nan nan nan nan nan nan nan nan nan nan nan nan nan nan nan nan nan nan nan nan nan nan nan nan nan nan nan nan nan nan nan nan nan nan nan nan nan nan nan nan nan nan nan nan nan nan nan nan nan nan nan nan nan nan nan nan
nan nan nan nan nan nan nan nan nan nan nan nan nan nan nan nan nan nan nan nan nan nan nan nan nan nan nan nan nan nan nan nan nan nan nan nan nan nan nan nan nan nan nan nan nan nan nan nan nan nan nan nan nan nan nan nan nan nan nan nan nan nan nan nan nan nan nan nan nan
nan nan nan nan nan nan nan nan nan nan nan nan nan nan nan nan nan nan nan nan nan nan nan nan nan nan nan nan nan nan nan nan nan nan nan nan nan nan nan nan nan nan nan nan nan nan nan nan nan nan nan nan nan nan nan nan nan nan nan nan nan nan nan nan nan nan nan nan nan
nan nan nan nan nan nan nan nan nan nan nan nan nan nan nan nan nan nan nan nan nan nan nan nan nan nan nan nan nan nan nan nan nan nan nan nan nan nan nan nan nan nan nan nan nan nan nan nan nan nan nan nan nan nan nan nan nan nan nan nan nan nan nan nan nan nan nan nan nan
nan nan nan nan nan nan nan nan nan nan nan nan nan nan nan nan nan nan nan nan nan nan nan nan nan nan nan nan nan nan nan nan nan nan nan nan nan nan nan nan nan nan nan nan nan nan nan nan nan nan nan nan nan nan nan nan nan nan nan nan nan nan nan nan nan nan nan nan nan
nan nan nan nan nan nan nan nan nan nan nan nan nan nan nan nan nan nan nan nan nan nan nan nan nan nan nan nan nan nan nan nan nan nan nan nan nan nan nan nan nan nan nan nan nan nan nan nan nan nan nan nan nan nan nan nan nan nan nan nan nan nan nan nan nan nan nan nan nan
nan nan nan nan nan nan nan nan nan nan nan nan nan nan nan nan nan nan nan nan nan nan nan nan nan nan nan nan nan nan nan nan nan nan nan nan nan nan nan nan nan nan nan nan nan nan nan nan nan nan nan nan nan nan nan nan nan nan nan nan nan nan nan nan nan nan nan nan nan
nan nan nan nan nan nan nan nan nan nan nan nan nan nan nan nan nan nan nan nan nan nan nan nan nan nan nan nan nan nan nan nan nan nan nan nan nan nan nan nan nan nan nan nan nan nan nan nan nan nan nan nan nan nan nan nan nan nan nan nan nan nan nan nan nan nan nan nan nan
nan nan nan nan nan nan nan nan nan nan nan nan nan nan nan nan nan nan nan nan nan nan nan nan nan nan nan nan nan nan nan nan nan nan nan nan nan nan nan nan nan nan nan nan nan nan nan nan nan nan nan nan nan nan nan nan nan nan nan nan nan nan nan nan nan nan nan nan nan
nan nan nan nan nan nan nan nan nan nan nan nan nan nan nan nan nan nan nan nan nan nan nan nan nan nan nan nan nan nan nan nan nan nan nan nan nan nan nan nan nan nan nan nan nan nan nan nan nan nan nan nan nan nan nan nan nan nan nan nan nan nan nan nan nan nan nan nan nan
nan nan nan nan nan nan nan nan nan nan nan nan nan nan nan nan nan nan nan nan nan nan nan nan nan nan nan nan nan nan nan nan nan nan nan nan nan nan nan nan nan nan nan nan nan nan nan nan nan nan nan nan nan nan nan nan nan nan nan nan nan nan nan nan nan nan nan nan nan
nan nan nan nan nan nan nan nan nan nan nan nan nan nan nan nan nan nan nan nan nan nan nan nan nan nan nan nan nan nan nan nan nan nan nan nan nan nan nan nan nan nan nan nan nan nan nan nan nan nan nan nan nan nan nan nan nan nan nan nan nan nan nan nan nan nan nan nan nan
nan nan nan nan nan nan nan nan nan nan nan nan nan nan nan nan nan nan nan nan nan nan nan nan nan nan nan nan nan nan nan nan nan nan nan nan nan nan nan nan nan nan nan nan nan nan nan nan nan nan nan nan nan nan nan nan nan nan nan nan nan nan nan nan nan nan nan nan nan
nan nan nan nan nan nan nan nan nan nan nan nan nan nan nan nan nan nan nan nan nan nan nan nan nan nan nan nan nan nan nan nan nan nan nan nan nan nan nan nan nan nan nan nan nan nan nan nan nan nan nan nan nan nan nan nan nan nan nan nan nan nan nan nan nan nan nan nan nan
nan nan nan nan nan nan nan nan nan nan nan nan nan nan nan nan nan nan nan nan nan nan nan nan nan nan nan nan nan nan nan nan nan nan nan nan nan nan nan nan nan nan nan nan nan nan nan nan nan nan nan nan nan nan nan nan nan nan nan nan nan nan nan nan nan nan nan nan nan
nan nan nan nan nan nan nan nan nan nan nan nan nan nan nan nan nan nan nan nan nan nan nan nan nan nan nan nan nan nan nan nan nan nan nan nan nan nan nan nan nan nan nan nan nan nan nan nan nan nan nan nan nan nan nan nan nan nan nan nan nan nan nan nan nan nan nan nan nan
nan nan nan nan nan nan nan nan nan nan nan nan nan nan nan nan nan nan nan nan nan nan nan nan nan nan nan nan nan nan nan nan nan nan nan nan nan nan nan nan nan nan nan nan nan nan nan nan nan nan nan nan nan nan nan nan nan nan nan nan nan nan nan nan nan nan nan nan nan
nan nan nan nan nan nan nan nan nan nan nan nan nan nan nan nan nan nan nan nan nan nan nan nan nan nan nan nan nan nan nan nan nan nan nan nan nan nan nan nan nan nan nan nan nan nan nan nan nan nan nan nan nan nan nan nan nan nan nan nan nan nan nan nan nan nan nan nan nan
nan nan nan nan nan nan nan nan nan nan nan nan nan nan nan nan nan nan nan nan nan nan nan nan nan nan nan nan nan nan nan nan nan nan nan nan nan nan nan nan nan nan nan nan nan nan nan nan nan nan nan 0 nan nan nan nan nan nan nan nan nan nan nan nan nan nan nan nan nan
nan nan nan nan nan nan nan nan nan nan nan nan nan nan nan nan nan nan nan nan nan nan nan nan nan nan nan nan nan nan nan nan nan nan nan nan nan nan nan nan nan nan nan nan nan nan nan nan nan nan nan 1 nan nan nan nan nan nan nan nan nan nan nan nan nan nan nan nan nan
nan nan nan nan nan nan nan nan nan nan nan nan nan nan nan nan nan nan nan nan nan nan nan nan nan nan nan nan nan nan nan nan nan nan nan nan nan nan nan nan nan nan nan nan nan nan nan nan nan nan nan 1 nan nan nan nan nan nan nan nan nan nan nan nan nan nan nan nan nan
nan nan nan nan nan nan nan nan nan nan nan nan nan nan nan nan nan nan nan nan nan nan nan nan nan nan nan nan nan nan nan nan nan nan nan nan nan nan nan nan nan nan nan nan nan nan nan nan nan nan nan 2 nan nan nan nan nan nan nan nan nan nan nan nan nan nan nan nan nan
nan nan nan nan nan nan nan nan nan nan nan nan nan nan nan nan nan nan nan nan nan nan nan nan nan nan nan nan nan nan nan nan nan nan nan nan nan nan nan nan nan nan nan nan nan nan nan nan nan nan 0 3 nan nan nan nan nan nan nan nan nan nan nan nan nan nan nan nan nan
nan nan nan nan nan nan nan nan nan nan nan nan nan nan nan nan nan nan nan nan nan nan nan nan nan nan nan nan nan nan nan nan nan nan nan nan nan nan nan nan nan nan nan nan nan nan nan nan nan nan 0 6 nan nan nan nan nan nan nan nan nan nan nan nan nan nan nan nan nan
nan nan nan nan nan nan nan nan nan nan nan nan nan nan nan nan nan nan nan nan nan nan nan nan nan nan nan nan nan nan nan nan nan nan nan nan nan nan nan nan nan nan nan nan nan nan nan nan nan nan 1 5 nan nan nan nan nan nan nan nan nan nan nan nan nan nan nan nan nan
nan nan nan nan nan nan nan nan nan nan nan nan nan nan nan nan nan nan nan nan nan nan nan nan nan nan nan nan nan nan nan nan nan nan nan nan nan nan nan nan nan nan nan nan nan nan nan nan nan nan 3 nan nan nan nan nan nan nan nan nan nan nan nan nan nan nan nan nan nan
nan nan nan nan nan nan nan nan nan nan nan nan nan nan nan nan nan nan nan nan nan nan nan nan nan nan nan nan nan nan nan nan nan nan nan nan nan nan nan nan nan nan nan nan nan nan nan nan 0 0 3 nan nan nan nan nan nan nan nan nan nan nan nan nan nan nan nan nan nan
nan nan nan nan nan nan nan nan nan nan nan nan nan nan nan nan nan nan nan nan nan nan nan nan nan nan nan nan nan nan nan nan nan nan nan nan nan nan nan nan nan nan nan nan nan nan nan nan 1 1 3 nan nan nan nan nan nan nan nan nan nan nan nan nan nan nan nan nan nan
nan nan nan nan nan nan nan nan nan nan nan nan nan nan nan nan nan nan nan nan nan nan nan nan nan nan nan nan nan nan nan nan nan nan nan nan nan nan nan nan nan nan nan nan nan nan nan 0 3 3 8 nan nan nan nan nan nan nan nan nan nan nan nan nan nan nan nan nan 6
nan nan nan nan nan nan nan nan nan nan nan nan nan nan nan nan nan nan nan nan nan nan nan nan nan nan nan nan nan nan nan nan nan nan nan nan nan nan nan nan nan nan nan nan nan nan nan 1 4 4 10 0 nan nan nan nan nan nan nan nan nan nan nan nan nan nan nan nan 29
nan nan nan nan nan nan nan nan nan nan nan nan nan nan nan nan nan nan nan nan nan nan nan nan nan nan nan nan nan nan nan nan nan nan nan nan nan nan nan nan nan nan nan nan nan nan 0 3 7 7 14 nan nan nan nan nan nan nan nan nan nan nan nan nan nan nan nan nan nan